Total_Precipitation_Accumulation
1.63 1.77 1.72 1.68 1.68 1.73 1.79 1.83 1.84 1.71 1.44 1.04 0.89 0.85 0.90 0.97 1.21 1.10 0.96 0.92 0.82 0.77 0.69 0.61 0.56 0.57 0.70 0.89 1.11 1.31 1.43 1.54 1.58 1.54 1.47 1.45 1.51 1.58
1.42 1.57 1.69 1.73 1.75 1.75 1.80 1.80 1.76 1.72 1.61 1.22 0.96 0.81 0.89 0.86 1.02 0.87 0.97 1.13 0.90 0.75 0.67 0.61 0.57 0.55 0.54 0.60 0.65 0.70 0.72 0.78 0.90 1.06 1.11 1.10 1.13 1.20
1.25 1.28 1.46 1.59 1.70 1.75 1.76 1.75 1.79 1.73 1.59 1.38 1.09 0.91 0.98 0.97 0.98 0.86 0.91 0.96 0.87 0.81 0.72 0.62 0.56 0.56 0.52 0.52 0.52 0.48 0.49 0.50 0.56 0.71 0.82 0.83 0.83 0.85
1.12 1.20 1.28 1.31 1.40 1.54 1.65 1.64 1.71 1.75 1.68 1.57 1.30 1.07 1.04 1.05 1.13 1.15 1.10 1.05 1.01 1.07 1.02 0.84 0.69 0.63 0.57 0.51 0.48 0.44 0.41 0.42 0.42 0.47 0.58 0.72 0.83 0.82
0.98 1.03 1.07 1.15 1.25 1.29 1.38 1.47 1.55 1.59 1.66 1.60 1.50 1.37 1.22 1.14 1.14 1.11 1.20 1.35 1.30 1.28 1.32 1.13 0.91 0.77 0.69 0.62 0.56 0.50 0.46 0.45 0.42 0.41 0.46 0.53 0.63 0.72
0.87 0.94 0.98 1.03 1.11 1.19 1.21 1.33 1.45 1.54 1.55 1.52 1.47 1.41 1.35 1.31 1.27 1.22 1.28 1.41 1.49 1.40 1.38 1.29 1.20 1.08 0.93 0.80 0.69 0.62 0.58 0.54 0.52 0.49 0.48 0.50 0.55 0.60
0.80 0.82 0.86 0.82 0.86 0.93 0.93 1.10 1.26 1.43 1.49 1.53 1.45 1.35 1.29 1.29 1.28 1.29 1.34 1.50 1.55 1.58 1.58 1.45 1.32 1.16 1.02 0.92 0.79 0.72 0.69 0.63 0.59 0.57 0.56 0.55 0.58 0.65
0.70 0.74 0.80 0.82 0.78 0.74 0.74 0.81 0.94 1.06 1.24 1.36 1.40 1.33 1.25 1.23 1.32 1.43 1.45 1.52 1.62 1.56 1.47 1.54 1.47 1.35 1.17 0.98 0.96 0.92 0.82 0.73 0.66 0.62 0.60 0.58 0.58 0.63
0.54 0.67 0.78 0.84 0.87 0.89 0.77 0.76 0.77 0.82 0.91 1.08 1.22 1.22 1.21 1.22 1.29 1.38 1.45 1.49 1.41 1.46 1.42 1.49 1.47 1.35 1.20 1.13 1.16 1.03 0.93 0.86 0.80 0.73 0.67 0.65 0.66 0.69
0.47 0.58 0.73 0.84 0.87 0.89 0.84 0.90 0.88 0.79 0.76 0.84 1.02 1.10 1.10 1.23 1.36 1.46 1.58 1.57 1.52 1.50 1.42 1.43 1.38 1.25 1.15 1.14 1.21 1.08 0.97 0.90 0.85 0.83 0.80 0.77 0.78 0.81
0.44 0.52 0.67 0.76 0.86 0.87 0.84 0.95 0.95 0.78 0.71 0.81 0.85 0.92 1.00 1.13 1.31 1.45 1.54 1.55 1.53 1.51 1.36 1.23 1.18 1.23 1.23 1.16 1.13 1.12 1.00 0.90 0.82 0.78 0.77 0.76 0.78 0.88
0.44 0.49 0.69 0.75 0.77 0.74 0.76 0.96 1.06 0.93 0.70 0.68 0.75 0.88 0.96 1.09 1.32 1.46 1.68 1.68 1.49 1.45 1.35 1.21 1.20 1.28 1.40 1.31 1.13 1.03 0.96 0.96 0.92 0.87 0.84 0.83 0.92 0.91
0.32 0.38 0.40 0.52 0.56 0.60 0.71 0.82 0.92 0.83 0.75 0.83 0.92 0.95 1.02 1.08 1.18 1.30 1.52 1.70 1.63 1.42 1.31 1.31 1.29 1.27 1.25 1.21 1.15 1.04 0.93 0.91 0.89 0.88 0.91 0.94 1.00 0.98
0.23 0.28 0.32 0.41 0.45 0.51 0.58 0.63 0.67 0.72 0.78 0.92 0.94 0.86 0.91 0.98 0.99 1.08 1.25 1.39 1.30 1.24 1.15 1.10 1.11 1.06 1.01 0.95 0.95 1.00 1.00 0.94 0.91 0.90 0.88 1.02 1.08 1.10
0.17 0.24 0.28 0.35 0.35 0.41 0.49 0.50 0.59 0.80 0.92 0.87 0.85 0.81 0.80 0.83 0.83 0.94 1.13 1.28 1.24 1.07 0.99 0.92 0.93 0.93 0.91 0.86 0.81 0.80 0.86 0.89 0.84 0.85 0.88 0.89 0.89 0.97
0.19 0.22 0.26 0.32 0.35 0.38 0.45 0.53 0.64 0.81 0.95 0.81 0.68 0.70 0.70 0.79 0.85 0.84 0.93 1.03 1.18 1.17 1.05 0.98 0.94 0.94 0.92 0.83 0.80 0.76 0.71 0.73 0.77 0.84 0.88 0.88 0.86 0.84
0.23 0.31 0.41 0.51 0.52 0.52 0.58 0.62 0.65 0.66 0.72 0.66 0.65 0.70 0.73 0.75 0.81 0.83 0.85 0.86 0.89 0.94 0.98 0.97 0.94 0.95 0.98 0.93 0.86 0.77 0.73 0.69 0.72 0.84 0.94 0.97 0.92 0.89
0.32 0.37 0.48 0.62 0.67 0.69 0.70 0.70 0.72 0.67 0.68 0.64 0.66 0.67 0.67 0.67 0.70 0.78 0.85 0.92 0.87 0.78 0.76 0.75 0.78 0.87 0.94 0.97 0.88 0.78 0.77 0.77 0.78 0.80 0.84 0.87 0.85 0.84
0.33 0.38 0.55 0.62 0.60 0.62 0.68 0.71 0.65 0.56 0.56 0.56 0.52 0.53 0.53 0.52 0.55 0.61 0.70 0.77 0.78 0.74 0.71 0.70 0.72 0.77 0.81 0.78 0.74 0.66 0.68 0.75 0.82 0.82 0.78 0.75 0.71 0.70
0.37 0.51 0.65 0.68 0.62 0.56 0.53 0.49 0.44 0.41 0.41 0.42 0.43 0.43 0.46 0.48 0.50 0.51 0.54 0.58 0.63 0.66 0.72 0.74 0.76 0.77 0.78 0.76 0.70 0.63 0.60 0.66 0.73 0.78 0.77 0.77 0.79 0.83
0.31 0.41 0.50 0.57 0.52 0.40 0.34 0.32 0.31 0.32 0.34 0.37 0.40 0.44 0.45 0.47 0.49 0.52 0.53 0.55 0.58 0.61 0.63 0.66 0.70 0.83 0.87 0.89 0.82 0.67 0.62 0.68 0.75 0.76 0.76 0.79 0.80 0.78
0.21 0.25 0.29 0.31 0.29 0.27 0.27 0.28 0.29 0.32 0.34 0.37 0.40 0.43 0.48 0.53 0.53 0.51 0.53 0.54 0.55 0.56 0.56 0.58 0.67 0.79 0.86 0.89 0.81 0.69 0.61 0.62 0.73 0.82 0.82 0.80 0.76 0.71
0.22 0.24 0.26 0.27 0.28 0.29 0.29 0.30 0.30 0.32 0.34 0.36 0.40 0.45 0.48 0.50 0.54 0.54 0.53 0.54 0.55 0.55 0.57 0.59 0.63 0.72 0.81 0.83 0.80 0.73 0.67 0.64 0.64 0.66 0.67 0.73 0.70 0.65